Laoag, Philippines

10:01 AM +08 on December 18, 2017 (GMT +0800)
Laoag International

Weather History for RPLI - November, 2012

Change the Weather History Date:

Thursday, November 15, 2012

  Actual Average Record
Temperature  
Mean Temperature 84 °F -  
Max Temperature 92 °F - - ()
Min Temperature 75 °F - - ()
Cooling Degree Days 18    
Growing Degree Days 34 (Base 50)    
Moisture  
Dew Point 75 °F    
Average Humidity 71    
Maximum Humidity 94    
Minimum Humidity 55    
Precipitation  
Precipitation 0.00 in - - ()
Sea Level Pressure  
Sea Level Pressure 29.87 in    
Wind  
Wind Speed 5 mph ()    
Max Wind Speed 16 mph    
Max Gust Speed -    
Visibility 6.4 miles    
Events Rain    
T = Trace of Precipitation, MM = Missing Value Source: Averaged Metar Reports

Daily Weather History Graph

Daily Weather History Graph

Search for Another Location

Airport or City:

Trip Planner

Search our weather history database for the weather conditions in past years. The results will help you decide how hot, cold, wet, or windy it might be!

Date:

Astronomy

Nov. 15, 2012 Rise Set
Actual Time 6:03 AM +08 5:20 PM +08
Civil Twilight 5:41 AM +08 5:43 PM +08
Nautical Twilight 5:14 AM +08 6:10 PM +08
Astronomical Twilight 4:48 AM +08 6:36 PM +08
Moon 7:13 AM +08 (11/15) 6:43 PM +08 (11/15)
Length of Visible Light 12h 02m
Length of Day
11h 16m
New Moon, 2% of the Moon is Illuminated
Nov 15
New Moon
Nov 20
First Quarter
Nov 28
Full
Dec 6
Last Quarter
Dec 13
New

Hourly Weather History & Observations

Time (+08) Temp. Heat Index Dew Point Humidity Pressure Visibility Wind Dir Wind Speed Gust Speed Precip Events Conditions
2:00 AM 76 °F - 74 °F 90% 29.85 in 6 mi Calm Calm - -   Scattered Clouds
5:00 AM 75 °F - 73 °F 91% 29.84 in 6 mi East 4.5 mph - -   Scattered Clouds
6:00 AM 75.2 °F - 73.4 °F 94% 29.86 in 6.2 mi Calm Calm - N/A   Partly Cloudy
8:00 AM 79 °F - 74 °F 79% 29.90 in 7 mi East 4.5 mph - -  
8:00 AM 78.8 °F - 73.4 °F 83% 29.86 in 6.2 mi East 4.6 mph - N/A   Partly Cloudy
9:00 AM 84.2 °F 92.3 °F 75.2 °F 74% 29.92 in 6.2 mi Calm Calm - N/A   Partly Cloudy
10:00 AM 87.8 °F 99.7 °F 77.0 °F 70% 29.92 in 6.2 mi NW 4.6 mph - N/A   Partly Cloudy
11:00 AM 88 °F - 74 °F 55% 29.92 in 7 mi NW 8.9 mph - -   Haze
11:00 AM 87.8 °F 95.6 °F 73.4 °F 62% 29.92 in 6.2 mi NW 9.2 mph - N/A   Partly Cloudy
12:00 PM 87.8 °F 95.6 °F 73.4 °F 62% 29.92 in 6.2 mi NW 9.2 mph - N/A   Partly Cloudy
1:00 PM 91.4 °F 100.1 °F 73.4 °F 55% 29.86 in 6.2 mi NW 4.6 mph - N/A   Partly Cloudy
2:00 PM 91 °F - 77 °F 56% 29.84 in 7 mi NNW 11.2 mph - -   Haze
2:00 PM 91.4 °F 105.1 °F 77.0 °F 63% 29.83 in 6.2 mi NNW 10.4 mph - N/A   Partly Cloudy
3:00 PM 93.2 °F 107.2 °F 77.0 °F 59% 29.80 in 6.2 mi North 9.2 mph - N/A   Scattered Clouds
4:00 PM 89.6 °F 102.2 °F 77.0 °F 66% 29.80 in 6.2 mi NNE 16.1 mph - N/A   Partly Cloudy
5:00 PM 86 °F - 74 °F 61% 29.83 in 7 mi NE 15.7 mph - -   Haze
5:00 PM 86.0 °F 95.1 °F 75.2 °F 70% 29.83 in 6.2 mi NE 11.5 mph - N/A   Scattered Clouds
6:00 PM 82.4 °F 89.5 °F 75.2 °F 79% 29.83 in 6.2 mi NE 13.8 mph - N/A   Partly Cloudy
8:00 PM 82 °F - 72 °F 66% 29.89 in 7 mi NE 13.4 mph - -   Partly Cloudy
11:00 PM 79 °F - 76 °F 89% 29.92 in 6 mi Calm Calm - - Rain Light Rain Showers